Location: Auckland
(36.8670°S, 174.7670°E)
Time: 03:08:30
(UTC+12:00)

NOSS 2-1 (E) - Pass Details

Date: 02 May 2019
Orbit: 471 x 1733 km, 63.3° (Epoch: 14 May)

Event Time Altitude Azimuth Distance (km) Brightness Sun altitude
Rises 19:52:16 0° 213° (SSW) 4,742 8.5 -27.8°
Reaches altitude 10° 19:57:54 10° 188° (S) 3,490 7.5 -29.0°
Maximum altitude 20:01:37 13° 162° (SSE) 3,028 6.9 -29.7°
Enters shadow 20:01:46 13° 161° (SSE) 3,020 6.9 -29.7°
